Home   Weather   Karachi   Past weeks

Flag for Pakistan Past Weather in Karachi, Sindh, Pakistan — Yesterday and Last 2 Weeks

Now
86 °F

Haze.


Feels Like: 83 °F
Forecast: 70 / 82 °F
Wind: No wind

Location: Karachi Airport

Current Time: Dec 11, 2016 at 3:09:36 pm

Latest Report: Dec 11, 2016 at 2:25 pm


Visibility: 2 mi

Pressure: 29.89 "Hg

Humidity: 24%

Dew Point: 45 °F

Location of KarachiLocation

Past Weather in Karachi — Graph

°F

Karachi Temperature Yesterday

Maximum temperature yesterday: 84 °F (at 12:25 pm)
Minimum temperature yesterday: 70 °F (at 7:55 am)
Average temperature yesterday: 77 °F

High & Low Weather Summary for the Past Weeks

 TemperatureHumidityPressure
High91 °F (Nov 26, 1:55 pm)100% (Dec 4, 10:55 am)30.15 "Hg (Dec 4, 10:55 am)
Low57 °F (Dec 5, 6:55 am)11% (Nov 27, 1:55 pm)29.86 "Hg (Dec 9, 2:25 pm)
Average74 °F50%30.00 "Hg
* Reported Nov 26 1:25 pm — Dec 11 1:55 pm, Karachi, Weather by CustomWeather, © 2016

Note: Actual official high and low records may vary slightly from our data, if they occured in-between our weather recording intervals... More about our weather records

Advertising

Karachi Weather History for the Previous 24 Hours

Scroll right to see more
 ConditionsComfort  
Time TempWeatherWind HumidityBarometerVisibility
1:55 pm
Sun, Dec 11
84 °FHaze.5 mph29%29.92 "Hg2 mi
1:25 pm84 °FHaze.6 mph31%29.92 "Hg2 mi
12:55 pm82 °FHaze.6 mph35%29.95 "Hg2 mi
12:25 pm82 °FHaze.6 mph35%29.95 "Hg2 mi
11:55 am81 °FHaze.6 mph37%29.98 "Hg2 mi
11:25 am81 °FHaze.5 mph39%29.98 "Hg1 mi
10:55 am79 °FScattered clouds.7 mph51%30.01 "Hg1 mi
10:25 am77 °FScattered clouds.5 mph61%30.01 "Hg1 mi
9:55 am75 °FPartly sunny.5 mph65%30.01 "Hg1 mi
9:25 am73 °FPartly sunny.5 mph69%30.01 "Hg1 mi
8:55 am70 °FScattered clouds.8 mph78%29.98 "Hg1 mi
8:25 am68 °FFog.9 mph83%29.98 "Hg1 mi
7:55 am66 °FFog.10 mph88%29.98 "Hg1 mi
6:55 am66 °FFog.9 mph94%29.95 "Hg1 mi
6:25 am64 °FFog.7 mph94%29.92 "Hg1 mi
5:55 am64 °FFog.No wind94%29.92 "Hg1 mi
4:55 am66 °FFog.No wind88%29.89 "Hg2 mi
4:25 am66 °FFog.No wind94%29.89 "Hg2 mi
3:55 am66 °FFog.No wind94%29.89 "Hg2 mi
3:25 am66 °FFog.No wind94%29.89 "Hg2 mi
2:55 am68 °FFog.3 mph88%29.92 "Hg2 mi
2:25 am68 °FFog.No wind88%29.92 "Hg2 mi
1:55 am70 °FFog.No wind88%29.92 "Hg2 mi
1:25 am72 °FPassing clouds.2 mph88%29.92 "Hg2 mi
12:55 am73 °FPassing clouds.5 mph83%29.92 "Hg2 mi
12:25 am73 °FPassing clouds.5 mph83%29.92 "Hg2 mi
11:25 pm
Sat, Dec 10
73 °FPassing clouds.9 mph83%29.92 "Hg2 mi
10:25 pm75 °FHaze.3 mph78%29.95 "Hg3 mi
9:55 pm75 °FHaze.3 mph78%29.95 "Hg3 mi
9:25 pm75 °FPassing clouds.6 mph78%29.92 "Hg4 mi
8:55 pm75 °FPassing clouds.7 mph78%29.92 "Hg4 mi
8:25 pm75 °FPassing clouds.8 mph78%29.92 "Hg4 mi
7:55 pm77 °FPassing clouds.6 mph74%29.92 "Hg4 mi
7:25 pm77 °FPassing clouds.5 mph74%29.92 "Hg4 mi
6:55 pm77 °FPassing clouds.6 mph69%29.89 "Hg4 mi
6:25 pm79 °FPassing clouds.8 mph65%29.89 "Hg4 mi
5:55 pm79 °FPassing clouds.8 mph61%29.89 "Hg4 mi
5:25 pm82 °FScattered clouds.13 mph55%29.86 "Hg4 mi
4:55 pm81 °FScattered clouds.14 mph58%29.86 "Hg4 mi
4:25 pm82 °FScattered clouds.13 mph55%29.86 "Hg4 mi
3:55 pm84 °FScattered clouds.13 mph55%29.86 "Hg4 mi
3:25 pm84 °FScattered clouds.12 mph51%29.86 "Hg4 mi
Weather by CustomWeather, © 2016

See weather overviewHow to use our weather pages